Back to catalog

BREEZE-M DEB

LostHEO
NORAD 34252·DEBRIS·🇷🇺 Russia

Launched Feb 28, 2006 from Baikonur Cosmodrome

Loading…

Next Passes (next 24 hours)

TLE

StaleSource: Space-Track

Epoch: Sep 9, 2025, 23:41 UTC

1 34252U 06006BT  25252.98713064  .00000558  00000-0  99233-3 0  9999
2 34252  51.6853  18.4618 5082912 230.6790  72.1721  5.25225453337835

Track BREEZE-M DEB in real time with AllMySat

Download on the App Store